| time (UTC) | temp C | wind direction | speed KPH | gust KPH | rain 1hr cm | rain 24hr cm | rain mn cm | humidity % | barometer mb |
| 20260504081534 | 11 | 27 | 3.2 | 9.7 | 0.00 | 0.08 | 0.00 | 72 | 1013.3 |
| 20260504044529 | 6 | 296 | 1.6 | 4.8 | 0.00 | 0.08 | 0.00 | 88 | 1012.2 |
| 20260504043029 | 6 | 346 | 3.2 | 8.0 | 0.00 | 0.08 | 0.00 | 89 | 1012.3 |
| 20260504041541 | 6 | 332 | 0.0 | 3.2 | 0.00 | 0.08 | 0.00 | 89 | 1012.3 |
| 20260504040034 | 6 | 303 | 1.6 | 3.2 | 0.00 | 0.08 | 0.00 | 89 | 1012.5 |
| 20260504034534 | 6 | 303 | 0.0 | 3.2 | 0.00 | 0.08 | 0.00 | 89 | 1012.6 |
| 20260504033031 | 6 | 0 | 0.0 | 3.2 | 0.00 | 0.08 | 0.00 | 88 | 1012.5 |
| 20260504031533 | 6 | 0 | 0.0 | 3.2 | 0.00 | 0.08 | 0.00 | 89 | 1012.6 |
| 20260504030034 | 6 | 303 | 0.0 | 3.2 | 0.00 | 0.08 | 0.00 | 88 | 1012.7 |
| 20260504024531 | 7 | 0 | 0.0 | 3.2 | 0.00 | 0.08 | 0.00 | 88 | 1012.7 |
| 20260504023030 | 7 | 0 | 0.0 | 4.8 | 0.00 | 0.08 | 0.00 | 87 | 1012.6 |
| 20260504021530 | 7 | 303 | 1.6 | 4.8 | 0.00 | 0.08 | 0.00 | 86 | 1012.7 |
| 20260504020037 | 7 | 318 | 0.0 | 4.8 | 0.00 | 0.08 | 0.00 | 87 | 1012.7 |
| 20260504014532 | 7 | 333 | 1.6 | 8.0 | 0.00 | 0.10 | 0.00 | 85 | 1012.5 |
| 20260504013042 | 7 | 340 | 0.0 | 6.4 | 0.00 | 0.10 | 0.00 | 84 | 1012.6 |
| 20260504011530 | 7 | 360 | 1.6 | 4.8 | 0.00 | 0.10 | 0.00 | 84 | 1012.8 |
| 20260504010029 | 7 | 0 | 0.0 | 3.2 | 0.00 | 0.10 | 0.00 | 86 | 1012.9 |
| 20260504004532 | 8 | 0 | 0.0 | 4.8 | 0.00 | 0.10 | 0.00 | 87 | 1012.9 |
| 20260504003031 | 8 | 0 | 0.0 | 6.4 | 0.00 | 0.10 | 0.00 | 87 | 1012.9 |
| 20260504001750 | 8 | 0 | 0.0 | 3.2 | 0.00 | 0.10 | 0.00 | 87 | 1012.9 |
| 20260504000030 | 8 | 0 | 0.0 | 3.2 | 0.00 | 0.10 | 0.00 | 86 | 1013.0 |
| 20260503234532 | 8 | 0 | 0.0 | 3.2 | 0.00 | 0.10 | 0.00 | 87 | 1013.0 |
| 20260503233030 | 8 | 0 | 0.0 | 6.4 | 0.00 | 0.10 | 0.00 | 87 | 1013.1 |
| 20260503231531 | 8 | 0 | 0.0 | 3.2 | 0.00 | 0.10 | 0.00 | 87 | 1013.0 |
| 20260503230039 | 8 | 0 | 0.0 | 3.2 | 0.00 | 0.08 | 0.00 | 86 | 1013.1 |
| 20260503224530 | 8 | 340 | 0.0 | 4.8 | 0.00 | 0.08 | 0.00 | 86 | 1013.2 |
| 20260503223028 | 8 | 0 | 0.0 | 3.2 | 0.00 | 0.08 | 0.00 | 86 | 1013.2 |
| 20260503221533 | 8 | 309 | 0.0 | 4.8 | 0.00 | 0.08 | 0.00 | 87 | 1013.2 |
| 20260503220030 | 8 | 0 | 0.0 | 4.8 | 0.00 | 0.08 | 0.00 | 85 | 1013.2 |
| 20260503214538 | 8 | 0 | 1.6 | 6.4 | 0.00 | 0.08 | 0.08 | 83 | 1013.0 |
| 20260503213031 | 8 | 0 | 0.0 | 3.2 | 0.00 | 0.08 | 0.08 | 84 | 1013.1 |
| 20260503211530 | 8 | 0 | 0.0 | 0.0 | 0.03 | 0.08 | 0.08 | 86 | 1013.1 |
| 20260503210030 | 9 | 0 | 0.0 | 3.2 | 0.05 | 0.08 | 0.08 | 86 | 1012.9 |
| 20260503204532 | 9 | 0 | 0.0 | 4.8 | 0.05 | 0.08 | 0.08 | 86 | 1012.6 |
| 20260503203035 | 9 | 0 | 0.0 | 3.2 | 0.05 | 0.08 | 0.08 | 85 | 1012.5 |
| 20260503201532 | 10 | 0 | 1.6 | 11.3 | 0.00 | 0.05 | 0.05 | 83 | 1012.4 |
| 20260503200032 | 10 | 273 | 3.2 | 11.3 | 0.00 | 0.03 | 0.03 | 79 | 1012.4 |
| 20260503194529 | 10 | 0 | 0.0 | 3.2 | 0.00 | 0.03 | 0.03 | 76 | 1012.2 |
| 20260503193043 | 10 | 0 | 0.0 | 3.2 | 0.00 | 0.03 | 0.03 | 75 | 1012.0 |
| 20260503191559 | 11 | 300 | 1.6 | 6.4 | 0.00 | 0.03 | 0.03 | 74 | 1011.9 |
| 20260503190034 | 11 | 317 | 1.6 | 6.4 | 0.00 | 0.03 | 0.03 | 73 | 1011.7 |
| 20260503184536 | 11 | 290 | 4.8 | 11.3 | 0.00 | 0.03 | 0.03 | 73 | 1011.5 |
| 20260503183031 | 11 | 321 | 0.0 | 8.0 | 0.00 | 0.03 | 0.03 | 75 | 1011.6 |
| 20260503181544 | 11 | 311 | 3.2 | 8.0 | 0.00 | 0.03 | 0.03 | 74 | 1011.5 |
| 20260503180033 | 11 | 308 | 3.2 | 9.7 | 0.00 | 0.03 | 0.03 | 74 | 1011.5 |
| 20260503174534 | 11 | 311 | 4.8 | 14.5 | 0.00 | 0.03 | 0.03 | 75 | 1011.4 |
| 20260503173030 | 12 | 333 | 8.0 | 16.1 | 0.00 | 0.03 | 0.03 | 72 | 1011.4 |
| 20260503171531 | 11 | 305 | 6.4 | 17.7 | 0.00 | 0.03 | 0.03 | 71 | 1011.4 |